RH
63 59 47 42 38 31 23 20 18 16 14 18 23 23 22 20 18 17 16 16 18 20 20 20 19 20 23 25 28 29 31 31 32 32 35 35 35 39 42 46 50 52 54 61
62 57 57 56 55 49 43 39 30 25 22 18 17 14 15 16 17 15 14 14 15 16 19 20 20 19 21 25 25 28 30 32 30 32 34 37 39 38 43 45 46 49 52 59
55 52 51 58 59 61 57 51 44 40 36 35 32 22 12 11 12 13 14 14 14 14 15 18 22 22 22 25 28 27 28 29 29 31 35 38 40 40 41 41 43 45 51 56
55 52 48 50 51 51 56 57 55 53 52 47 41 42 23 17 14 12 11 12 14 14 14 15 20 24 24 24 28 32 33 33 34 35 34 34 33 36 35 39 42 46 50 55
51 49 50 49 49 50 51 55 56 55 58 62 49 55 28 28 25 22 23 18 15 14 13 13 15 22 24 24 26 28 31 32 31 34 34 35 36 34 38 39 42 46 50 54
43 47 48 49 49 47 46 48 52 55 64 73 56 63 38 35 32 30 30 28 24 22 20 17 15 17 23 25 27 30 29 29 28 28 31 33 33 38 41 40 39 43 49 55
34 32 34 37 42 43 47 52 64 64 75 61 55 66 39 36 38 40 40 40 37 32 29 27 22 18 23 27 27 28 30 30 30 28 27 26 26 31 37 39 40 43 45 53
48 37 36 37 35 35 38 41 58 66 62 56 56 58 37 32 36 38 41 42 40 41 39 34 34 27 22 23 28 26 27 27 29 28 27 25 25 28 34 35 37 42 43 52
52 47 41 41 41 39 44 46 47 53 53 59 50 39 30 26 27 34 36 34 34 35 36 38 36 37 35 28 26 28 27 27 29 29 24 24 26 26 33 38 39 41 44 54
40 46 43 40 38 42 43 46 54 62 72 73 52 45 31 21 28 32 36 36 31 27 30 32 34 35 36 37 35 29 27 27 26 25 23 22 22 24 32 39 38 40 43 56
38 46 44 38 47 44 43 49 57 59 69 72 61 42 25 30 32 37 41 40 37 29 26 28 32 32 33 36 38 39 36 34 31 28 24 23 21 25 33 38 39 43 47 57
41 41 50 39 32 32 34 39 46 62 63 74 79 45 28 33 34 37 38 39 38 34 32 25 27 27 32 34 35 36 39 40 38 37 31 27 28 31 35 39 42 47 54 63
42 53 59 42 40 46 51 48 48 55 63 64 76 39 30 32 32 34 34 32 32 35 34 33 30 28 31 31 34 35 37 41 42 46 43 39 37 39 41 44 48 54 63 65
46 51 47 53 46 49 52 57 58 62 73 67 54 51 28 25 28 26 26 28 28 30 30 32 28 28 26 31 33 36 39 42 48 50 57 55 51 50 54 53 56 67 70 71
48 57 53 52 51 50 50 51 48 51 55 67 42 49 24 22 22 19 18 19 22 23 25 25 28 26 26 27 32 37 43 44 50 59 55 67 63 62 66 66 71 72 72 73
54 61 59 57 51 48 46 44 48 47 45 49 46 38 24 22 24 21 20 23 25 23 21 25 25 25 25 26 31 32 40 48 53 62 60 62 70 69 68 70 71 73 74 73
62 62 57 57 53 55 49 40 40 38 40 43 49 34 26 25 21 23 24 21 22 24 28 33 26 24 22 25 28 32 41 51 61 64 64 62 73 78 73 69 71 71 71 73
62 63 65 61 60 67 34 33 39 42 40 43 46 34 33 30 31 27 21 27 25 26 36 36 33 30 26 28 28 29 36 45 56 65 73 63 68 81 85 82 77 77 76 79
59 69 74 74 73 50 32 29 39 52 44 39 38 44 38 34 35 22 22 32 32 34 40 38 38 37 32 29 32 29 32 44 46 58 65 77 76 77 87 88 84 85 83 83
63 71 81 82 83 75 25 30 44 51 55 30 48 45 45 44 47 24 26 29 35 38 37 35 34 36 32 31 30 28 32 35 44 50 58 65 72 88 87 87 90 87 90 92
64 69 75 76 80 56 38 37 55 73 52 41 44 48 50 52 49 33 31 28 29 30 33 34 36 34 30 32 31 31 30 33 40 48 54 62 72 74 87 93 94 95 88 88
58 68 67 74 80 72 44 47 59 55 53 50 45 47 52 52 45 39 32 31 29 27 26 29 33 36 35 36 35 31 29 30 41 48 50 57 66 72 74 88 88 91 88 92
66 63 74 78 64 57 57 54 57 59 56 52 62 48 60 59 48 43 35 34 31 30 28 28 29 28 33 34 36 30 31 36 44 49 49 58 62 71 70 83 85 89 86 85
67 76 80 81 48 70 55 57 56 56 64 64 65 65 61 66 51 45 42 38 38 34 30 30 29 26 27 33 34 31 37 44 56 54 62 68 66 72 77 80 84 82 81 82
65 75 74 79 69 65 52 57 61 60 60 68 68 69 62 71 58 51 44 42 44 38 34 33 31 28 29 36 36 37 48 60 65 62 68 79 76 74 78 75 81 80 81 82
70 64 78 62 55 66 48 47 62 67 62 68 69 53 54 69 64 56 51 46 44 42 38 35 35 35 36 43 42 47 59 74 70 72 78 89 94 81 74 76 80 84 83 80